TGL9203 LXGB-LFKC

Flight info

Callsign TGL9203
Flight time 2h 14m
Altitude 38000
Route RIXUR N851 ISTER DCT LUNOR DCT NOLVI DCT GARPU DCT LIBLO
Aircraft B736/M-SDE2E3FGHIRWXY/LB1

Departure

Time 2026-04-14 08:19
Airport Gibraltar Airport (LXGB)

Arrival

Time 2026-04-14 10:33
Airport Calvi Sainte Catherine Airport (LFKC)
Time Latitude Longitude Altitude Speed Heading
2026-04-14 08:08 36.15322 -5.34536 17 ft 0 kts 357°
2026-04-14 08:09 36.15298 -5.34534 17 ft 4 kts 357°
2026-04-14 08:10 36.15272 -5.34533 17 ft 4 kts 356°
2026-04-14 08:10 36.15246 -5.34525 17 ft 4 kts 323°
2026-04-14 08:10 36.15232 -5.34500 20 ft 4 kts 275°
2026-04-14 08:10 36.15232 -5.34474 17 ft 3 kts 267°
2026-04-14 08:11 36.15232 -5.34470 17 ft 0 kts 267°
2026-04-14 08:15 36.15232 -5.34477 17 ft 4 kts 268°
2026-04-14 08:15 36.15230 -5.34540 18 ft 10 kts 268°
2026-04-14 08:16 36.15227 -5.34632 17 ft 12 kts 268°
2026-04-14 08:16 36.15165 -5.34677 17 ft 12 kts 167°
2026-04-14 08:16 36.15130 -5.34580 16 ft 15 kts 85°
2026-04-14 08:16 36.15136 -5.34434 15 ft 18 kts 88°
2026-04-14 08:17 36.15141 -5.34282 14 ft 18 kts 88°
2026-04-14 08:17 36.15148 -5.34134 15 ft 16 kts 77°
2026-04-14 08:17 36.15176 -5.34028 15 ft 5 kts 112°
2026-04-14 08:17 36.15144 -5.34018 15 ft 5 kts 207°
2026-04-14 08:18 36.15144 -5.34052 15 ft 4 kts 290°
2026-04-14 08:18 36.15148 -5.34089 15 ft 4 kts 270°
2026-04-14 08:18 36.15138 -5.34372 14 ft 73 kts 268°
2026-04-14 08:18 36.15108 -5.35303 28 ft 140 kts 269°
2026-04-14 08:19 36.15059 -5.36556 614 ft 149 kts 265°
2026-04-14 08:19 36.14955 -5.37812 1486 ft 149 kts 267°
2026-04-14 08:19 36.14833 -5.39153 2074 ft 167 kts 262°
2026-04-14 08:19 36.14275 -5.40591 2377 ft 207 kts 233°
2026-04-14 08:20 36.13036 -5.41753 2654 ft 243 kts 206°
2026-04-14 08:20 36.11291 -5.42253 3097 ft 270 kts 181°
2026-04-14 08:20 36.09408 -5.42019 4002 ft 275 kts 169°
2026-04-14 08:20 36.07590 -5.41246 4913 ft 279 kts 148°
2026-04-14 08:21 36.06104 -5.39722 5845 ft 279 kts 127°
2026-04-14 08:21 36.05161 -5.37683 6767 ft 278 kts 105°
2026-04-14 08:21 36.04812 -5.35349 7660 ft 276 kts 91°
2026-04-14 08:21 36.04852 -5.32975 8524 ft 277 kts 75°
2026-04-14 08:22 36.05539 -5.30775 9406 ft 275 kts 55°
2026-04-14 08:22 36.06617 -5.28817 10311 ft 277 kts 51°
2026-04-14 08:22 36.07783 -5.26847 10787 ft 295 kts 50°
2026-04-14 08:22 36.09090 -5.24746 11036 ft 319 kts 48°
2026-04-14 08:23 36.10497 -5.22568 11684 ft 328 kts 48°
2026-04-14 08:23 36.11911 -5.20386 12506 ft 331 kts 48°
2026-04-14 08:23 36.13354 -5.18151 13384 ft 334 kts 47°
2026-04-14 08:23 36.14804 -5.15888 14222 ft 337 kts 47°
2026-04-14 08:24 36.16265 -5.13591 14963 ft 342 kts 47°
2026-04-14 08:24 36.17740 -5.11261 15742 ft 346 kts 47°
2026-04-14 08:24 36.19225 -5.08904 16504 ft 350 kts 47°
2026-04-14 08:24 36.20726 -5.06510 17266 ft 354 kts 48°
2026-04-14 08:25 36.22244 -5.04085 18020 ft 358 kts 47°
2026-04-14 08:25 36.23860 -5.01777 18743 ft 360 kts 43°
2026-04-14 08:25 36.25570 -4.99501 19452 ft 362 kts 42°
2026-04-14 08:25 36.27301 -4.97222 20177 ft 364 kts 42°
2026-04-14 08:26 36.29038 -4.94938 20874 ft 367 kts 42°
2026-04-14 08:26 36.30795 -4.92625 21550 ft 370 kts 42°
2026-04-14 08:26 36.32563 -4.90288 22231 ft 373 kts 42°
2026-04-14 08:26 36.34337 -4.87935 22898 ft 376 kts 41°
2026-04-14 08:27 36.36126 -4.85552 23556 ft 379 kts 42°
2026-04-14 08:27 36.37903 -4.83174 24138 ft 382 kts 42°
2026-04-14 08:27 36.39710 -4.80746 24700 ft 384 kts 42°
2026-04-14 08:27 36.41524 -4.78298 25271 ft 386 kts 42°
2026-04-14 08:28 36.43346 -4.75830 25835 ft 389 kts 42°
2026-04-14 08:28 36.45172 -4.73343 26369 ft 391 kts 42°
2026-04-14 08:28 36.47010 -4.70834 26904 ft 394 kts 42°
2026-04-14 08:28 36.48856 -4.68306 27427 ft 396 kts 42°
2026-04-14 08:29 36.50712 -4.65758 27942 ft 399 kts 42°
2026-04-14 08:29 36.52576 -4.63193 28433 ft 402 kts 42°
2026-04-14 08:29 36.54518 -4.60697 28931 ft 400 kts 36°
2026-04-14 08:29 36.56634 -4.58533 29430 ft 400 kts 34°
2026-04-14 08:30 36.58761 -4.56269 29887 ft 405 kts 37°
2026-04-14 08:30 36.60780 -4.53787 30296 ft 411 kts 41°
2026-04-14 08:30 36.62680 -4.51088 30648 ft 417 kts 44°
2026-04-14 08:30 36.64468 -4.48242 31159 ft 417 kts 46°
2026-04-14 08:31 36.66169 -4.45329 31760 ft 415 kts 47°
2026-04-14 08:31 36.69416 -4.39499 32839 ft 411 kts 48°
2026-04-14 08:31 36.71026 -4.36570 33299 ft 410 kts 47°
2026-04-14 08:32 36.72633 -4.33643 33762 ft 408 kts 47°
2026-04-14 08:32 36.74234 -4.30731 34262 ft 406 kts 47°
2026-04-14 08:32 36.75826 -4.27838 34669 ft 404 kts 47°
2026-04-14 08:32 36.77415 -4.24955 35009 ft 403 kts 47°
2026-04-14 08:33 36.79005 -4.22071 35372 ft 403 kts 47°
2026-04-14 08:33 36.80587 -4.19200 35756 ft 401 kts 47°
2026-04-14 08:33 36.82159 -4.16341 36164 ft 398 kts 47°
2026-04-14 08:33 36.83704 -4.13532 36526 ft 397 kts 46°
2026-04-14 08:34 36.85265 -4.10694 36827 ft 397 kts 46°
2026-04-14 08:34 36.86824 -4.07856 37149 ft 396 kts 46°
2026-04-14 08:34 36.88380 -4.05021 37422 ft 396 kts 46°
2026-04-14 08:34 36.89932 -4.02190 37699 ft 395 kts 46°
2026-04-14 08:35 36.91486 -3.99357 38035 ft 394 kts 46°
2026-04-14 08:35 36.93035 -3.96527 38224 ft 397 kts 46°
2026-04-14 08:35 36.96145 -3.90840 38218 ft 398 kts 46°
2026-04-14 08:36 36.99237 -3.85161 38232 ft 392 kts 46°
2026-04-14 08:36 37.02298 -3.79542 38238 ft 390 kts 46°
2026-04-14 08:37 37.05349 -3.73934 38249 ft 389 kts 46°
2026-04-14 08:37 37.08393 -3.68329 38240 ft 389 kts 46°
2026-04-14 08:38 37.11346 -3.62688 38233 ft 395 kts 52°
2026-04-14 08:38 37.13813 -3.56489 38232 ft 398 kts 54°
2026-04-14 08:39 37.16248 -3.50260 38231 ft 399 kts 54°
2026-04-14 08:39 37.18688 -3.44066 38233 ft 399 kts 54°
2026-04-14 08:40 37.21149 -3.37832 38222 ft 399 kts 54°
2026-04-14 08:40 37.23613 -3.31585 38226 ft 399 kts 54°
2026-04-14 08:41 37.26072 -3.25330 38220 ft 400 kts 54°
2026-04-14 08:41 37.28527 -3.19051 38224 ft 400 kts 54°
2026-04-14 08:42 37.30959 -3.12818 38222 ft 400 kts 54°
2026-04-14 08:42 37.33407 -3.06531 38229 ft 400 kts 54°
2026-04-14 08:43 37.35851 -3.00244 38226 ft 400 kts 54°
2026-04-14 08:43 37.38292 -2.93950 38217 ft 401 kts 54°
2026-04-14 08:44 37.40713 -2.87700 38218 ft 401 kts 54°
2026-04-14 08:44 37.43154 -2.81388 38221 ft 401 kts 54°
2026-04-14 08:45 37.45596 -2.75071 38214 ft 401 kts 54°
2026-04-14 08:45 37.48031 -2.68756 38210 ft 401 kts 54°
2026-04-14 08:46 37.50444 -2.62486 38206 ft 400 kts 54°
2026-04-14 08:46 37.52864 -2.56184 38201 ft 400 kts 55°
2026-04-14 08:47 37.55281 -2.49878 38201 ft 399 kts 55°
2026-04-14 08:47 37.57690 -2.43579 38196 ft 399 kts 55°
2026-04-14 08:48 37.60097 -2.37275 38188 ft 399 kts 54°
2026-04-14 08:48 37.62478 -2.31020 38188 ft 397 kts 55°
2026-04-14 08:49 37.64867 -2.24739 38179 ft 396 kts 55°
2026-04-14 08:49 37.65798 -2.22287 38179 ft 396 kts 55°
2026-04-14 08:50 37.67357 -2.18174 38177 ft 393 kts 55°
2026-04-14 08:50 37.69703 -2.11993 38180 ft 394 kts 54°
2026-04-14 08:51 37.72085 -2.05719 38180 ft 398 kts 55°
2026-04-14 08:51 37.74485 -1.99373 38177 ft 402 kts 55°
2026-04-14 08:52 37.76897 -1.92972 38180 ft 404 kts 55°
2026-04-14 08:52 37.79294 -1.86592 38170 ft 405 kts 55°
2026-04-14 08:53 37.81708 -1.80155 38178 ft 405 kts 55°
2026-04-14 08:53 37.84119 -1.73715 38161 ft 405 kts 55°
2026-04-14 08:54 37.86521 -1.67287 38157 ft 403 kts 54°
2026-04-14 08:54 37.88900 -1.60909 38163 ft 403 kts 55°
2026-04-14 08:55 37.91290 -1.54486 38153 ft 404 kts 55°
2026-04-14 08:55 37.93676 -1.48040 38158 ft 404 kts 55°
2026-04-14 08:56 37.96056 -1.41585 38148 ft 404 kts 55°
2026-04-14 08:56 37.98416 -1.35174 38161 ft 404 kts 55°
2026-04-14 08:57 38.00793 -1.28706 38160 ft 405 kts 55°
2026-04-14 08:57 38.03172 -1.22221 38153 ft 406 kts 55°
2026-04-14 08:58 38.05555 -1.15708 38160 ft 408 kts 56°
2026-04-14 08:58 38.07927 -1.09212 38157 ft 409 kts 56°
2026-04-14 08:59 38.10318 -1.02649 38151 ft 411 kts 56°
2026-04-14 08:59 38.12715 -0.96055 38135 ft 413 kts 56°
2026-04-14 09:00 38.15120 -0.89421 38132 ft 413 kts 56°
2026-04-14 09:00 38.17505 -0.82828 38123 ft 414 kts 56°
2026-04-14 09:01 38.19906 -0.76179 38115 ft 414 kts 57°
2026-04-14 09:01 38.22304 -0.69523 38111 ft 414 kts 57°
2026-04-14 09:02 38.24695 -0.62872 38108 ft 413 kts 57°
2026-04-14 09:02 38.27065 -0.56257 38102 ft 414 kts 57°
2026-04-14 09:03 38.29271 -0.49471 38114 ft 416 kts 59°
2026-04-14 09:03 38.31414 -0.42630 38111 ft 416 kts 59°
2026-04-14 09:04 38.33577 -0.35811 38122 ft 415 kts 59°
2026-04-14 09:04 38.35737 -0.29033 38115 ft 416 kts 59°
2026-04-14 09:05 38.37960 -0.22247 38121 ft 414 kts 59°
2026-04-14 09:05 38.40223 -0.15497 38125 ft 414 kts 59°
2026-04-14 09:06 38.42476 -0.08729 38120 ft 414 kts 59°
2026-04-14 09:06 38.44704 -0.02000 38122 ft 415 kts 59°
2026-04-14 09:07 38.46913 0.04795 38118 ft 415 kts 60°
2026-04-14 09:07 38.49099 0.11618 38120 ft 415 kts 60°
2026-04-14 09:08 38.51286 0.18448 38119 ft 416 kts 60°
2026-04-14 09:08 38.53457 0.25235 38119 ft 416 kts 60°
2026-04-14 09:09 38.55642 0.32075 38119 ft 416 kts 60°
2026-04-14 09:09 38.57827 0.38937 38114 ft 417 kts 61°
2026-04-14 09:10 38.59997 0.45762 38120 ft 418 kts 61°
2026-04-14 09:10 38.62184 0.52648 38116 ft 419 kts 61°
2026-04-14 09:11 38.64381 0.59554 38114 ft 419 kts 61°
2026-04-14 09:11 38.66579 0.66478 38119 ft 421 kts 61°
2026-04-14 09:12 38.68767 0.73431 38117 ft 422 kts 62°
2026-04-14 09:12 38.70934 0.80363 38118 ft 423 kts 62°
2026-04-14 09:13 38.73117 0.87367 38117 ft 424 kts 62°
2026-04-14 09:13 38.75305 0.94397 38114 ft 425 kts 62°
2026-04-14 09:14 38.77490 1.01435 38107 ft 425 kts 62°
2026-04-14 09:14 38.79658 1.08439 38104 ft 426 kts 62°
2026-04-14 09:15 38.81838 1.15497 38101 ft 426 kts 62°
2026-04-14 09:15 38.84017 1.22569 38107 ft 426 kts 62°
2026-04-14 09:16 38.86190 1.29641 38095 ft 426 kts 63°
2026-04-14 09:16 38.88344 1.36669 38103 ft 426 kts 63°
2026-04-14 09:17 38.90509 1.43746 38106 ft 426 kts 63°
2026-04-14 09:17 38.92654 1.50834 38107 ft 426 kts 63°
2026-04-14 09:18 38.94756 1.57958 38101 ft 426 kts 64°
2026-04-14 09:18 38.96833 1.65036 38101 ft 426 kts 64°
2026-04-14 09:19 38.98924 1.72161 38094 ft 426 kts 64°
2026-04-14 09:19 39.01013 1.79288 38091 ft 426 kts 64°
2026-04-14 09:20 39.03102 1.86432 38094 ft 426 kts 64°
2026-04-14 09:20 39.05182 1.93566 38095 ft 426 kts 64°
2026-04-14 09:21 39.07248 2.00668 38093 ft 427 kts 64°
2026-04-14 09:21 39.09323 2.07822 38091 ft 427 kts 64°
2026-04-14 09:22 39.11397 2.14989 38088 ft 427 kts 64°
2026-04-14 09:22 39.13465 2.22159 38090 ft 427 kts 64°
2026-04-14 09:23 39.15518 2.29296 38093 ft 428 kts 64°
2026-04-14 09:23 39.17582 2.36490 38084 ft 428 kts 64°
2026-04-14 09:24 39.19643 2.43691 38086 ft 428 kts 64°
2026-04-14 09:24 39.21700 2.50902 38083 ft 429 kts 65°
2026-04-14 09:25 39.23740 2.58068 38087 ft 429 kts 65°
2026-04-14 09:25 39.25805 2.65291 38078 ft 429 kts 64°
2026-04-14 09:26 39.27888 2.72500 38084 ft 429 kts 65°
2026-04-14 09:26 39.29928 2.79734 38070 ft 429 kts 65°
2026-04-14 09:27 39.31953 2.86989 38080 ft 429 kts 65°
2026-04-14 09:27 39.33963 2.94196 38072 ft 429 kts 65°
2026-04-14 09:28 39.35984 3.01451 38080 ft 430 kts 65°
2026-04-14 09:28 39.38005 3.08721 38071 ft 430 kts 65°
2026-04-14 09:29 39.40008 3.15948 38078 ft 430 kts 65°
2026-04-14 09:29 39.42022 3.23235 38074 ft 430 kts 65°
2026-04-14 09:30 39.44613 3.30113 38103 ft 423 kts 55°
2026-04-14 09:30 39.47670 3.36623 38079 ft 423 kts 54°
2026-04-14 09:31 39.50729 3.43140 38073 ft 424 kts 55°
2026-04-14 09:31 39.53742 3.49649 38074 ft 424 kts 55°
2026-04-14 09:32 39.56761 3.56226 38078 ft 425 kts 55°
2026-04-14 09:33 39.61282 3.66111 38082 ft 425 kts 55°
2026-04-14 09:33 39.64276 3.72673 38081 ft 426 kts 56°
2026-04-14 09:34 39.67287 3.79286 38078 ft 426 kts 56°
2026-04-14 09:34 39.70298 3.85915 38072 ft 426 kts 56°
2026-04-14 09:35 39.73306 3.92548 38068 ft 427 kts 56°
2026-04-14 09:35 39.76295 3.99156 38062 ft 427 kts 56°
2026-04-14 09:36 39.79303 4.05818 38058 ft 427 kts 56°
2026-04-14 09:36 39.82305 4.12483 38049 ft 428 kts 56°
2026-04-14 09:37 39.85311 4.19169 38080 ft 428 kts 56°
2026-04-14 09:37 39.88294 4.25816 38077 ft 428 kts 56°
2026-04-14 09:38 39.91296 4.32519 38075 ft 429 kts 57°
2026-04-14 09:38 39.94297 4.39233 38080 ft 429 kts 57°
2026-04-14 09:39 39.97290 4.45947 38072 ft 428 kts 56°
2026-04-14 09:39 40.00259 4.52622 38070 ft 428 kts 56°
2026-04-14 09:40 40.03237 4.59332 38067 ft 427 kts 57°
2026-04-14 09:40 40.06210 4.66036 38060 ft 426 kts 57°
2026-04-14 09:41 40.09172 4.72724 38056 ft 425 kts 56°
2026-04-14 09:41 40.12108 4.79363 38050 ft 424 kts 56°
2026-04-14 09:42 40.15049 4.86032 38052 ft 423 kts 57°
2026-04-14 09:42 40.17980 4.92687 38038 ft 420 kts 57°
2026-04-14 09:43 40.20852 4.99230 38036 ft 411 kts 58°
2026-04-14 09:43 40.23690 5.05700 38050 ft 415 kts 57°
2026-04-14 09:44 40.26565 5.12267 38041 ft 416 kts 57°
2026-04-14 09:44 40.29431 5.18830 38026 ft 415 kts 57°
2026-04-14 09:45 40.32300 5.25415 38030 ft 417 kts 58°
2026-04-14 09:45 40.35173 5.32027 38021 ft 417 kts 57°
2026-04-14 09:46 40.38021 5.38577 38020 ft 416 kts 56°
2026-04-14 09:46 40.41445 5.44573 38017 ft 409 kts 49°
2026-04-14 09:47 40.45114 5.50346 38024 ft 415 kts 49°
2026-04-14 09:47 40.48813 5.56215 38006 ft 418 kts 49°
2026-04-14 09:48 40.52500 5.62121 38016 ft 425 kts 49°
2026-04-14 09:48 40.56275 5.68197 38008 ft 433 kts 49°
2026-04-14 09:49 40.60070 5.74319 37987 ft 429 kts 49°
2026-04-14 09:49 40.63820 5.80386 37983 ft 424 kts 49°
2026-04-14 09:50 40.67508 5.86361 37973 ft 416 kts 49°
2026-04-14 09:50 40.71088 5.92165 37977 ft 408 kts 50°
2026-04-14 09:51 40.74750 5.97946 37998 ft 416 kts 46°
2026-04-14 09:51 40.78706 6.03578 37981 ft 420 kts 45°
2026-04-14 09:52 40.82715 6.09204 37978 ft 422 kts 45°
2026-04-14 09:52 40.86724 6.14889 37977 ft 424 kts 46°
2026-04-14 09:53 40.90703 6.20578 37966 ft 425 kts 46°
2026-04-14 09:53 40.94711 6.26327 37954 ft 424 kts 46°
2026-04-14 09:54 40.98696 6.32059 37960 ft 422 kts 46°
2026-04-14 09:54 41.02622 6.37717 37947 ft 419 kts 46°
2026-04-14 09:55 41.06525 6.43350 37943 ft 412 kts 46°
2026-04-14 09:55 41.10427 6.48988 37959 ft 418 kts 46°
2026-04-14 09:56 41.14372 6.54703 37945 ft 421 kts 46°
2026-04-14 09:56 41.18320 6.60434 37948 ft 427 kts 46°
2026-04-14 09:57 41.22340 6.66280 37938 ft 431 kts 46°
2026-04-14 09:57 41.26398 6.72193 37935 ft 433 kts 46°
2026-04-14 09:58 41.30451 6.78112 37929 ft 432 kts 46°
2026-04-14 09:58 41.34484 6.84014 37923 ft 430 kts 47°
2026-04-14 09:59 41.38478 6.89868 37922 ft 429 kts 47°
2026-04-14 09:59 41.42464 6.95723 37914 ft 425 kts 47°
2026-04-14 10:00 41.46402 7.01519 37918 ft 419 kts 47°
2026-04-14 10:00 41.50285 7.07246 37925 ft 416 kts 47°
2026-04-14 10:01 41.54171 7.12986 37935 ft 422 kts 47°
2026-04-14 10:01 41.58129 7.18845 37932 ft 428 kts 47°
2026-04-14 10:02 41.62388 7.24463 37912 ft 433 kts 36°
2026-04-14 10:02 41.67512 7.28705 37583 ft 439 kts 30°
2026-04-14 10:02 41.70162 7.30759 37004 ft 439 kts 30°
2026-04-14 10:03 41.72758 7.32770 36392 ft 436 kts 30°
2026-04-14 10:03 41.75374 7.34810 35736 ft 434 kts 30°
2026-04-14 10:03 41.77977 7.36855 35138 ft 432 kts 31°
2026-04-14 10:03 41.80548 7.38888 34663 ft 426 kts 31°
2026-04-14 10:04 41.83083 7.40901 34187 ft 421 kts 31°
2026-04-14 10:04 41.85586 7.42894 33667 ft 417 kts 31°
2026-04-14 10:04 41.88067 7.44874 33133 ft 412 kts 31°
2026-04-14 10:04 41.90519 7.46832 32668 ft 407 kts 31°
2026-04-14 10:05 41.92903 7.48738 32207 ft 402 kts 31°
2026-04-14 10:05 41.95289 7.50647 31764 ft 397 kts 31°
2026-04-14 10:05 41.97649 7.52537 31321 ft 393 kts 31°
2026-04-14 10:05 41.99984 7.54408 30898 ft 389 kts 31°
2026-04-14 10:06 42.02298 7.56264 30480 ft 385 kts 31°
2026-04-14 10:06 42.04585 7.58100 30058 ft 382 kts 31°
2026-04-14 10:06 42.06858 7.59925 29587 ft 378 kts 31°
2026-04-14 10:06 42.09106 7.61733 29169 ft 374 kts 31°
2026-04-14 10:07 42.11299 7.63497 28737 ft 371 kts 31°
2026-04-14 10:07 42.13498 7.65268 28312 ft 366 kts 31°
2026-04-14 10:07 42.15672 7.67020 27893 ft 362 kts 31°
2026-04-14 10:07 42.17825 7.68756 27488 ft 359 kts 31°
2026-04-14 10:08 42.19956 7.70477 27064 ft 356 kts 31°
2026-04-14 10:08 42.22076 7.72189 26657 ft 353 kts 31°
2026-04-14 10:08 42.24172 7.73884 26248 ft 350 kts 31°
2026-04-14 10:08 42.26257 7.75571 25867 ft 348 kts 31°
2026-04-14 10:09 42.28322 7.77243 25483 ft 346 kts 32°
2026-04-14 10:09 42.30354 7.78890 25095 ft 344 kts 32°
2026-04-14 10:09 42.32397 7.80546 24719 ft 342 kts 32°
2026-04-14 10:09 42.34427 7.82194 24340 ft 340 kts 32°
2026-04-14 10:10 42.36449 7.83836 23963 ft 338 kts 32°
2026-04-14 10:10 42.38460 7.85472 23588 ft 337 kts 32°
2026-04-14 10:10 42.40466 7.87104 23150 ft 336 kts 32°
2026-04-14 10:10 42.42464 7.88730 22739 ft 334 kts 32°
2026-04-14 10:11 42.44448 7.90346 22342 ft 331 kts 32°
2026-04-14 10:11 42.46410 7.91945 21970 ft 328 kts 32°
2026-04-14 10:11 42.48333 7.93514 21592 ft 326 kts 32°
2026-04-14 10:11 42.50267 7.95093 21225 ft 323 kts 32°
2026-04-14 10:12 42.52187 7.96662 20855 ft 321 kts 32°
2026-04-14 10:12 42.54094 7.98221 20490 ft 319 kts 32°
2026-04-14 10:12 42.55985 7.99770 20126 ft 317 kts 32°
2026-04-14 10:12 42.57867 8.01310 19763 ft 315 kts 32°
2026-04-14 10:13 42.59741 8.02847 19400 ft 313 kts 32°
2026-04-14 10:13 42.61600 8.04371 19043 ft 312 kts 33°
2026-04-14 10:13 42.63455 8.05894 18686 ft 311 kts 33°
2026-04-14 10:13 42.65274 8.07387 18333 ft 309 kts 33°
2026-04-14 10:14 42.67113 8.08898 17944 ft 308 kts 33°
2026-04-14 10:14 42.68941 8.10403 17547 ft 306 kts 32°
2026-04-14 10:14 42.70760 8.11899 17164 ft 304 kts 32°
2026-04-14 10:14 42.72561 8.13382 16814 ft 301 kts 32°
2026-04-14 10:15 42.74346 8.14853 16454 ft 299 kts 32°
2026-04-14 10:15 42.76119 8.16315 16098 ft 297 kts 32°
2026-04-14 10:15 42.77877 8.17766 15756 ft 295 kts 32°
2026-04-14 10:15 42.79612 8.19198 15411 ft 295 kts 32°
2026-04-14 10:16 42.81358 8.20641 15055 ft 294 kts 32°
2026-04-14 10:16 42.83103 8.22083 14701 ft 292 kts 32°
2026-04-14 10:16 42.84831 8.23514 14356 ft 290 kts 32°
2026-04-14 10:16 42.86553 8.24940 14003 ft 289 kts 32°
2026-04-14 10:17 42.88265 8.26358 13655 ft 287 kts 32°
2026-04-14 10:17 42.89971 8.27773 13273 ft 286 kts 32°
2026-04-14 10:17 42.91664 8.29177 12912 ft 285 kts 33°
2026-04-14 10:17 42.93355 8.30580 12557 ft 284 kts 33°
2026-04-14 10:18 42.96694 8.33355 11870 ft 282 kts 33°
2026-04-14 10:18 42.98374 8.34753 11527 ft 283 kts 34°
2026-04-14 10:18 42.99813 8.36546 11147 ft 281 kts 56°
2026-04-14 10:19 43.00591 8.38958 10839 ft 279 kts 76°
2026-04-14 10:19 43.00706 8.41587 10511 ft 280 kts 95°
2026-04-14 10:19 43.00383 8.44206 10177 ft 279 kts 98°
2026-04-14 10:19 43.00006 8.46778 10044 ft 272 kts 99°
2026-04-14 10:20 42.99631 8.49274 9863 ft 266 kts 99°
2026-04-14 10:20 42.99268 8.51718 9515 ft 266 kts 99°
2026-04-14 10:20 42.98905 8.54197 9179 ft 265 kts 99°
2026-04-14 10:20 42.98547 8.56660 8849 ft 265 kts 99°
2026-04-14 10:21 42.98190 8.59124 8517 ft 264 kts 99°
2026-04-14 10:21 42.97836 8.61582 8197 ft 263 kts 98°
2026-04-14 10:21 42.97485 8.64023 7875 ft 261 kts 99°
2026-04-14 10:21 42.97138 8.66444 7559 ft 259 kts 98°
2026-04-14 10:22 42.96792 8.68847 7247 ft 257 kts 99°
2026-04-14 10:22 42.96451 8.71203 6942 ft 255 kts 98°
2026-04-14 10:22 42.96109 8.73569 6639 ft 254 kts 99°
2026-04-14 10:22 42.95697 8.75910 6319 ft 256 kts 110°
2026-04-14 10:23 42.94601 8.77821 5971 ft 263 kts 143°
2026-04-14 10:23 42.92871 8.78653 5699 ft 266 kts 166°
2026-04-14 10:23 42.91038 8.79003 5371 ft 267 kts 171°
2026-04-14 10:23 42.89205 8.79134 5274 ft 257 kts 174°
2026-04-14 10:24 42.87463 8.79163 5153 ft 250 kts 176°
2026-04-14 10:24 42.85754 8.79167 5036 ft 242 kts 176°
2026-04-14 10:24 42.84098 8.79169 4933 ft 234 kts 176°
2026-04-14 10:24 42.82492 8.79174 4834 ft 227 kts 175°
2026-04-14 10:25 42.80946 8.79179 4735 ft 219 kts 175°
2026-04-14 10:25 42.79448 8.79186 4606 ft 213 kts 175°
2026-04-14 10:25 42.77970 8.79194 4409 ft 213 kts 175°
2026-04-14 10:25 42.76478 8.79202 4192 ft 215 kts 175°
2026-04-14 10:26 42.74985 8.79208 3974 ft 214 kts 175°
2026-04-14 10:26 42.73520 8.79214 3767 ft 212 kts 175°
2026-04-14 10:26 42.72074 8.79218 3535 ft 205 kts 175°
2026-04-14 10:26 42.70670 8.79224 3307 ft 199 kts 175°
2026-04-14 10:27 42.69304 8.79230 3074 ft 194 kts 175°
2026-04-14 10:27 42.67965 8.79236 2811 ft 190 kts 175°
2026-04-14 10:27 42.66658 8.79241 2559 ft 185 kts 175°
2026-04-14 10:27 42.65388 8.79246 2323 ft 179 kts 175°
2026-04-14 10:28 42.64157 8.79252 2102 ft 175 kts 175°
2026-04-14 10:28 42.62970 8.79257 1864 ft 167 kts 176°
2026-04-14 10:28 42.61847 8.79260 1588 ft 160 kts 175°
2026-04-14 10:28 42.60809 8.79265 1541 ft 145 kts 176°
2026-04-14 10:29 42.59801 8.79249 1512 ft 148 kts 182°
2026-04-14 10:29 42.58764 8.78932 1499 ft 154 kts 191°
2026-04-14 10:29 42.57724 8.78633 1489 ft 152 kts 190°
2026-04-14 10:29 42.56718 8.78349 1468 ft 145 kts 189°
2026-04-14 10:30 42.55731 8.78084 1473 ft 146 kts 185°
2026-04-14 10:30 42.54711 8.78046 1519 ft 151 kts 180°
2026-04-14 10:30 42.53683 8.78019 1437 ft 142 kts 180°
2026-04-14 10:30 42.52729 8.77982 1422 ft 136 kts 183°
2026-04-14 10:31 42.51742 8.77900 1497 ft 146 kts 183°
2026-04-14 10:31 42.50734 8.77802 1475 ft 144 kts 186°
2026-04-14 10:31 42.49739 8.77892 1322 ft 146 kts 157°
2026-04-14 10:31 42.49111 8.78847 1197 ft 133 kts 96°
2026-04-14 10:32 42.49438 8.79930 1216 ft 129 kts 29°
2026-04-14 10:32 42.50309 8.79882 1118 ft 141 kts 331°
2026-04-14 10:32 42.51204 8.79335 743 ft 140 kts 351°
2026-04-14 10:32 42.52156 8.79301 304 ft 136 kts 358°
2026-04-14 10:33 42.53047 8.79298 148 ft 115 kts
2026-04-14 10:33 42.53630 8.79298 108 ft 53 kts 360°
2026-04-14 10:33 42.53912 8.79297 88 ft 38 kts 360°
2026-04-14 10:33 42.54068 8.79324 69 ft 13 kts 38°
2026-04-14 10:34 42.54108 8.79305 75 ft 4 kts 261°
2026-04-14 10:34 42.54083 8.79294 75 ft 4 kts 174°
2026-04-14 10:34 42.54056 8.79296 71 ft 4 kts 177°
2026-04-14 10:35 42.54030 8.79296 80 ft 4 kts 180°
2026-04-14 10:35 42.54004 8.79296 82 ft 4 kts 180°
2026-04-14 10:35 42.53977 8.79296 84 ft 4 kts 180°
2026-04-14 10:35 42.53944 8.79296 86 ft 5 kts 180°
2026-04-14 10:36 42.53902 8.79296 88 ft 7 kts 180°
2026-04-14 10:36 42.53851 8.79297 94 ft 8 kts 179°
2026-04-14 10:36 42.53796 8.79297 96 ft 8 kts 180°
2026-04-14 10:36 42.53741 8.79297 100 ft 8 kts 180°
2026-04-14 10:37 42.53686 8.79297 104 ft 8 kts 180°
2026-04-14 10:37 42.53625 8.79297 107 ft 10 kts 180°
2026-04-14 10:37 42.53553 8.79297 112 ft 11 kts 180°
2026-04-14 10:37 42.53471 8.79297 118 ft 12 kts 180°
2026-04-14 10:38 42.53386 8.79298 124 ft 12 kts 180°
2026-04-14 10:38 42.53303 8.79298 130 ft 12 kts 180°
2026-04-14 10:38 42.53213 8.79299 136 ft 15 kts 179°
2026-04-14 10:38 42.53102 8.79300 143 ft 17 kts 180°
2026-04-14 10:39 42.52981 8.79299 153 ft 18 kts 180°
2026-04-14 10:39 42.52845 8.79300 162 ft 21 kts 179°
2026-04-14 10:39 42.52697 8.79301 173 ft 21 kts 180°
2026-04-14 10:39 42.52551 8.79301 190 ft 18 kts 180°
2026-04-14 10:40 42.52474 8.79302 200 ft 11 kts 179°
2026-04-14 10:40 42.52436 8.79267 194 ft 6 kts 264°
2026-04-14 10:40 42.52436 8.79207 190 ft 6 kts 269°
2026-04-14 10:40 42.52444 8.79161 190 ft 4 kts 318°
2026-04-14 10:41 42.52471 8.79161 190 ft 3 kts
2026-04-14 10:41 42.52489 8.79150 191 ft 3 kts 319°
2026-04-14 10:41 42.52500 8.79127 188 ft 3 kts 298°
2026-04-14 10:41 42.52509 8.79104 191 ft 3 kts 298°
2026-04-14 10:42 42.52518 8.79082 187 ft 3 kts 300°
2026-04-14 10:42 42.52520 8.79078 186 ft 0 kts 300°